Regional Weather Roundup
Issued by NWS State College, PA

Home | Current Version | Previous Version | Graphics & Text | Print | Product List | Glossary Off
Versions: 1 2 3 4 5 6 7 8 9 10 11 12 13 14 15 16 17 18 19 20 21 22 23 24 25 26 27 28 29 30 31 32 33 34 35 36 37 38 39 40 41 42 43 44 45 46 47 48 49 50

000
ASUS41 KCTP 231010
RWRCTP

REGIONAL WEATHER ROUNDUP
NATIONAL WEATHER SERVICE STATE COLLEGE PA
600 AM EDT WED APR 23 2014

Note: "fair" indicates few or no clouds below 12,000 feet with no
significant weather and/or obstructions to visibility.

* = STATION THAT DOES NOT REPORT PRECIPITATION /E.G. RAIN...SNOW...ETC/
    THUNDER OR FOG.

PAZ002>004-007>009-013>016-020>023-029>032-231100-
WESTERN PENNSYLVANIA

CITY           SKY/WX    TMP DP  RH WIND       PRES   REMARKS
ERIE           CLOUDY    37  33  85 W13G18    29.88R
MEADVILLE      LGT SNOW  34  31  88 NW14G22   29.85R FOG
FRANKLIN*      CLOUDY    34  28  80 NW10G18   29.86R
NEW CASTLE     CLOUDY    38  32  79 NW13G20   29.90R
BEAVER COUNTY  NOT AVBL
BUTLER*        CLOUDY    37  30  75 NW9       29.88R
PITTSBURGH INT CLOUDY    40  34  79 NW10      29.87R
PITTSBURGH     CLOUDY    41  32  70 NW5G17    29.85R
INDIANA*       CLOUDY    37  36  93 NW7       29.83R
LATROBE        CLOUDY    37  37 100 W6        29.86S
WASHINGTON CO* CLOUDY    41  30  65 NW9       29.90R
$$

PAZ004>006-010>012-017>019-024>028-033>037-041-042-045-046-049>053-231100-
CENTRAL PENNSYLVANIA

CITY           SKY/WX    TMP DP  RH WIND       PRES   REMARKS
BRADFORD       LGT SNOW  33  29  85 NW15G30   29.74R FOG
DUBOIS         CLOUDY    36  31  82 W14G22    29.77R
CLEARFIELD     CLOUDY    36  32  85 NW10      29.76R
JOHNSTOWN      CLOUDY    34  31  88 W16       29.76R
ALTOONA        CLOUDY    40  32  73 NW8G22    29.77R
STATE COLLEGE  MOCLDY    41  32  70 W10G23    29.74R
WILLIAMSPORT   CLOUDY    44  32  62 W13G21    29.69R
SELINSGROVE    CLOUDY    45  33  63 W9G22     29.71R
FT INDIANTOWN  NOT AVBL
CAPITAL CITY   MOCLDY    46  32  58 NW12      29.71R
HARRISBURG     MOCLDY    47  33  58 NW17G35   29.69R
YORK           MOCLDY    45  35  68 W8        29.70R
$$

PAZ038>040-043-044-047-048-054-055-060>062-067>071-231100-
EASTERN PENNSYLVANIA

CITY           SKY/WX    TMP DP  RH WIND       PRES   REMARKS
SCRANTON       CLOUDY    42  35  76 NW14      29.63R
MOUNT POCONO   LGT RAIN  39  32  76 NW15G25   29.57R
ALLENTOWN      CLOUDY    47  33  58 NW10      29.63R
QUAKERTOWN*    MOSUNNY   46  32  57 W6        29.63R
READING        PTCLDY    46  33  60 NW13      29.65R
LANCASTER      CLEAR     45  33  63 NW17      29.67R
COATESVILLE    SUNNY     45  36  70 NW16G23   29.66R
POTTSTOWN      PTCLDY    45  34  65 W7G17     29.65R
BLUE BELL      PTCLDY    46  34  61 W6        29.63R
DOYLESTOWN     PTCLDY    45  33  63 NW13G18   29.62R
WILLOW GROVE   NOT AVBL
NORTH PHILA    CLEAR     49  31  49 NW12      29.64R
PHILADELPHIA   PTCLDY    50  31  48 W14       29.65S
$$



USA.gov is the U.S. government's official web portal to all federal, state and local government web resources and services.